Regional Weather Roundup
Issued by NWS

Home | Current Version | Previous Version | Graphics & Text | Print | Product List | Glossary On
Versions: 1 2 3 4 5 6 7 8 9 10 11 12 13 14 15 16 17 18 19 20 21 22 23 24 25 26 27 28 29 30 31 32 33 34 35 36 37 38 39 40 41 42 43 44 45 46 47 48 49 50
000
ASUS45 KTFX 180919
RWRMT
MONTANA HOURLY WEATHER ROUNDUP
NATIONAL WEATHER SERVICE GREAT FALLS MT
319 AM MDT THU SEP 18 2014

NOTE: "FAIR" INDICATES FEW OR NO CLOUDS BELOW 12000 FEET WITH NO
SIGNIFICANT WEATHER AND/OR OBSTRUCTIONS TO VISIBILITY.

* THESE STATIONS ARE NOT UNDER NWS QUALITY CONTROL. THEY DO NOT
   REPORT WEATHER SUCH AS PRECIPITATION OR FOG.

MTZ001>007-043-181000-
WEST OF THE DIVIDE
CITY           SKY/WX    TMP DP  RH WIND       PRES   REMARKS
KALISPELL      MOCLDY    46  46 100 CALM      29.72F
MISSOULA       MOCLDY    57  45  64 CALM      29.76F
BUTTE          PTCLDY    48  37  66 CALM      29.93F
MULLAN PASS    CLOUDY    63  36  37 S5        29.87F
* ESSEX        N/A       52  46  80 N/A        N/A
* LINCOLN      N/A       44  40  86 N/A        N/A
* LOOKOUT PASS N/A       58  42  55 S1         N/A
* POLSON       N/A       60  46  60 N/A        N/A
* RONAN APT    MOCLDY    54  46  74 N/A        N/A
* SEELEY LAKE  N/A       45  40  83 N/A        N/A
* THOMP F APT  CLOUDY    52  45  77 N/A        N/A
$$

MTZ008-052>055-181000-
SOUTHWEST MONTANA
CITY           SKY/WX    TMP DP  RH WIND       PRES   REMARKS
BOZEMAN        MOCLDY    54  45  72 S6        29.87F
DILLON         CLOUDY    59  39  48 S10       29.91F
W YELLOWSTONE  MOCLDY    39  37  93 CALM      30.06F
* THREE FORKS  MOCLDY    48  48 100 N/A        N/A
* BOULDER HILL N/A       56  35  45 S9         N/A
* MONIDA PASS  N/A       54  37  53 SE3        N/A
* RAYNOLDS PAS N/A       53  22  30 NE2        N/A
* WHITEHALL    N/A       49  40  71 N2G8       N/A
* WISE RIVER   N/A       44  34  68 W3         N/A
$$

MTZ009>010-012-014-046-048-049-054-181000-
EAST SLOPES AND CENTRAL MONTANA
CITY           SKY/WX    TMP DP  RH WIND       PRES   REMARKS
CUT BANK       CLOUDY    55  46  72 CALM      29.73F
GREAT FALLS    MOCLDY    63  43  48 S10       29.75F
HELENA         MOCLDY    59  46  62 CALM      29.81F
MALMSTROM AFB  PTCLDY    63  45  52 SW12      29.75F
* CONRAD       CLOUDY    54  52  93 N/A        N/A
* EAST GLACIER N/A       54  43  67 NW2        N/A
* MONARCH      N/A       55  34  45 S12        N/A
* PENDROY      N/A       60  45  58 W2         N/A
* SAINT MARY   N/A       48  44  86 SE3        N/A
* SWEET GRASS  N/A       61  47  60 SW10       N/A
$$

MTZ011-013-016-021-035-040-045-047-050-051-181000-
NORTH CENTRAL MONTANA
CITY           SKY/WX    TMP DP  RH WIND       PRES   REMARKS
HAVRE          MOCLDY    54  50  86 W3        29.68S
LEWISTOWN      PTCLDY    57  43  60 SE7       29.81F
* CHINOOK      PTCLDY    57  52  83 E5        29.67S
* FORT BENTON  MOCLDY    59  50  72 CALM      29.71F
* CHESTER      N/A       54  47  77 SW1        N/A
* DENTON       N/A       63  43  48 SW2        N/A
* JUDITH GAP   N/A       54  49  83 S7         N/A
* LOMA         N/A       62  51  67 NE5        N/A
$$

MTZ017>020-022>027-061-062-181000-
NORTHEAST MONTANA
CITY           SKY/WX    TMP DP  RH WIND       PRES   REMARKS
GLASGOW        PTCLDY    55  46  72 E14       29.71F
GLENDIVE       PTCLDY    57  50  78 SE8       29.81F
JORDAN         MOCLDY    57  50  78 E3        29.75F
SIDNEY         PTCLDY    54  48  80 SE3       29.82F
WOLF POINT     PTCLDY    52  45  77 E6        29.76F
* BEAVER HILL  N/A       58  51  78 S14        N/A
* CIRCLE       N/A       61  52  72 N/A        N/A
* LINDSAY DVD  N/A       50  49  96 E4         N/A
* NAVAJO       N/A       52  45  77 SE8        N/A
* SACO         N/A       57  49  75 E14        N/A
$$

MTZ028>042-056>058-181000-
SOUTHCENTRAL AND SOUTHEAST MONTANA
CITY           SKY/WX    TMP DP  RH WIND       PRES   REMARKS
BAKER          MOCLDY    55  50  83 SE14      29.86F
BILLINGS       PTCLDY    63  46  54 VRB3      29.82F
LIVINGSTON     MOCLDY    55  43  64 N6        29.88F
MILES CITY     PTCLDY    63  52  68 S9        29.78F
* LAUREL APT   PTCLDY    66  45  47 SW6        N/A
* ROUNDUP APT  PTCLDY    61  48  62 SW5        N/A
* ALZADA       N/A       53  50  90 E4         N/A
* HYSHAM       N/A       66  46  49 W4G9       N/A
* LAME DEER    N/A       63  45  52 S8         N/A
* REED POINT   N/A       51  50  96 W1         N/A
* ROSCOE HILL  N/A       66  33  29 S9         N/A
$$

REGIONAL REPORTS...DAKOTAS
CITY           SKY/WX    TMP DP  RH WIND       PRES   REMARKS
WILLISTON      CLEAR     57  46  67 S5        29.84F
DICKINSON      CLEAR     52  45  77 SE12      29.87F
BEACH          N/A       54  52  93 SE17      29.84F
CROSBY         CLEAR     48  48 100 SE8       29.85F
TIOGA          CLEAR     46  46 100 SE8       29.91F
WATFORD CITY   CLEAR     57  46  67 SE10      29.82F
BISMARCK       CLEAR     48  45  89 NE8       29.95F
GRAND FORKS    CLEAR     37  37 100 N5        30.03S WCI  33
FARGO          CLEAR     45  41  86 CALM      30.00F
BUFFALO SD     PTCLDY    55  50  83 S7        29.82F
RAPID CITY     CLEAR     52  48  86 CALM      29.91F
$$

REGIONAL REPORTS...WYOMING/IDAHO/WASHINGTON
CITY           SKY/WX    TMP DP  RH WIND       PRES   REMARKS
GILLETTE       PTCLDY    61  50  67 S14       29.93F
SHERIDAN       PTCLDY    55  46  72 CALM      29.88F
CODY           PTCLDY   N/A N/A N/A N/A        N/A
YELLOWSTONE LA MOCLDY    43  37  79 CALM      30.17F
SALMON         CLOUDY    52  46  80 S5        29.86F
MULLAN PASS    CLOUDY    63  36  37 S5        29.87S
SAND POINT     MOCLDY    50  50 100 CALM      29.67F
SPOKANE        CLOUDY    66  36  33 S5        29.67R
$$

REGIONAL REPORTS...ALBERTA
CITY           SKY/WX    TMP DP  RH WIND       PRES   REMARKS
CALGARY        MOCLDY    59  45  60 S8        29.65S
LETHBRIDGE     FAIR      54  46  74 SW9       29.66F
MEDICINE HAT   MOCLDY    59  52  78 SW7       29.62F
EDMONTON       MOCLDY    50  46  86 S7        29.57F
WATERTON GATE  N/A       55  43  64 SW5        N/A
CARDSTON       N/A       63  46  54 SW7        N/A
$$

REGIONAL REPORTS...SASKATCHEWAN
CITY           SKY/WX    TMP DP  RH WIND       PRES   REMARKS
SWIFT CURRENT  CLEAR     55  48  77 S13       29.66F
REGINA         N/A       48  46  93 SE18G25   29.78F
VAL MARIE      N/A       50  46  86 E1         N/A
ASSINIBOIA     N/A       54  45  72 SE10       N/A
CORONACH       N/A       54  46  74 SE10       N/A

$$




USA.gov is the U.S. government's official web portal to all federal, state and local government web resources and services.